Location: Mountain Grove
(34.0887°N, 86.6172°W)
Time: 00:44:58
(UTC+00:00)

Cosmos 1833 - Pass Details

Date: 14 July 2020
Orbit: 837 x 862 km, 70.9° (Epoch: 12 August)

Event Time Altitude Azimuth Distance (km) Brightness Sun altitude
Exits shadow 09:54:11 - 196° (SSW) 2,928 6.5 -10.0°
Reaches altitude 10° 09:55:26 10° 195° (SSW) 2,444 6.2 -9.8°
Maximum altitude 10:01:03 80° 109° (ESE) 852 4.3 -8.8°
Drops below altitude 10° 10:06:40 10° 23° (NNE) 2,454 7.6 -7.9°
Sets 10:09:07 0° 23° (NNE) 3,393 8.4 -7.4°
